TimeEDT,TemperatureF,Dew PointF,Humidity,Sea Level PressureIn,VisibilityMPH,Wind Direction,Wind SpeedMPH,Gust SpeedMPH,PrecipitationIn,Events,Conditions,WindDirDegrees,DateUTC
12:54 AM,66.0,60.1,81,29.87,10.0,South,8.1,-,0.00,,Overcast,170,2013-08-02 04:54:00
1:54 AM,66.0,61.0,84,29.85,10.0,South,4.6,-,N/A,,Overcast,180,2013-08-02 05:54:00
2:54 AM,66.0,60.1,81,29.82,10.0,South,5.8,-,N/A,,Overcast,180,2013-08-02 06:54:00
3:54 AM,66.9,61.0,81,29.82,10.0,South,5.8,-,N/A,,Overcast,170,2013-08-02 07:54:00
4:05 AM,66.2,60.8,83,29.81,10.0,SSE,3.5,-,N/A,,Overcast,160,2013-08-02 08:05:00
4:16 AM,66.2,60.8,83,29.81,10.0,SSE,5.8,-,N/A,,Overcast,160,2013-08-02 08:16:00
4:27 AM,66.2,60.8,83,29.82,10.0,South,6.9,-,N/A,,Overcast,170,2013-08-02 08:27:00
4:54 AM,66.9,61.0,81,29.82,10.0,SSE,6.9,-,0.00,Rain,Light Rain,160,2013-08-02 08:54:00
5:54 AM,66.0,63.0,90,29.82,7.0,Calm,Calm,-,0.09,Rain,Light Rain,0,2013-08-02 09:54:00
6:17 AM,66.2,62.6,88,29.81,10.0,ESE,3.5,-,0.00,,Overcast,120,2013-08-02 10:17:00
6:54 AM,66.9,63.0,87,29.83,10.0,Calm,Calm,-,0.00,Rain,Light Rain,0,2013-08-02 10:54:00
7:54 AM,68.0,64.0,87,29.83,2.5,Calm,Calm,-,0.00,Rain,Light Rain,0,2013-08-02 11:54:00
8:08 AM,66.2,64.4,94,29.83,2.5,North,3.5,-,0.01,Rain,Light Rain,350,2013-08-02 12:08:00
8:54 AM,66.9,64.0,90,29.83,2.0,WNW,4.6,-,0.04,Rain,Light Rain,300,2013-08-02 12:54:00
9:27 AM,69.8,64.4,83,29.83,2.5,West,3.5,-,0.00,,Mostly Cloudy,270,2013-08-02 13:27:00
9:36 AM,69.8,66.2,88,29.82,7.0,SW,5.8,-,0.00,,Mostly Cloudy,230,2013-08-02 13:36:00
9:54 AM,70.0,66.0,87,29.82,10.0,SSW,4.6,-,0.00,,Mostly Cloudy,210,2013-08-02 13:54:00
10:54 AM,73.9,64.9,73,29.82,10.0,West,4.6,-,N/A,,Mostly Cloudy,280,2013-08-02 14:54:00
11:01 AM,73.4,64.4,73,29.82,10.0,WNW,6.9,-,N/A,,Mostly Cloudy,290,2013-08-02 15:01:00
11:50 AM,77.0,62.6,61,29.82,10.0,West,3.5,-,N/A,,Scattered Clouds,280,2013-08-02 15:50:00
11:54 AM,78.1,64.0,62,29.82,10.0,West,10.4,-,N/A,,Scattered Clouds,270,2013-08-02 15:54:00
12:54 PM,80.1,63.0,56,29.81,10.0,WSW,10.4,-,N/A,,Scattered Clouds,250,2013-08-02 16:54:00
1:54 PM,82.0,61.0,49,29.80,10.0,West,9.2,-,N/A,,Scattered Clouds,270,2013-08-02 17:54:00
2:54 PM,82.9,57.9,42,29.79,10.0,West,8.1,-,N/A,,Scattered Clouds,260,2013-08-02 18:54:00
3:54 PM,84.0,55.9,38,29.79,10.0,West,15.0,21.9,N/A,,Scattered Clouds,270,2013-08-02 19:54:00
4:54 PM,82.0,55.9,41,29.79,10.0,West,16.1,21.9,N/A,,Scattered Clouds,260,2013-08-02 20:54:00
5:54 PM,82.0,55.9,41,29.80,10.0,West,16.1,-,N/A,,Mostly Cloudy,260,2013-08-02 21:54:00
6:54 PM,81.0,53.1,38,29.81,10.0,West,16.1,-,N/A,,Scattered Clouds,260,2013-08-02 22:54:00
7:54 PM,79.0,57.0,47,29.83,10.0,WSW,13.8,21.9,N/A,,Scattered Clouds,240,2013-08-02 23:54:00
8:54 PM,78.1,59.0,52,29.84,10.0,SW,11.5,-,N/A,,Scattered Clouds,230,2013-08-03 00:54:00
9:54 PM,75.0,60.1,60,29.86,10.0,SW,8.1,-,N/A,,Scattered Clouds,220,2013-08-03 01:54:00
10:54 PM,73.9,62.1,66,29.86,10.0,SW,11.5,-,N/A,,Mostly Cloudy,230,2013-08-03 02:54:00
11:40 PM,73.4,60.8,65,29.87,10.0,WNW,13.8,19.6,0.00,,Mostly Cloudy,290,2013-08-03 03:40:00
11:54 PM,73.0,61.0,66,29.87,10.0,WNW,6.9,-,0.00,,Scattered Clouds,300,2013-08-03 03:54:00